Port Heiden Airport
PAPH : now visible

Airfield :











YOU CAN JOIN US ON...

 
LOGIN :

Register | Disclaimer

   EN    FR    IT 

 









Legend :    VFR   Marginal VFR   IFR   Intensive IFR   Very Intensive IFR
Visi :
Ceiling :
>= 8 km
>= 3000ft
5 to 8 km
1000 to 3000 ft
1500m to 5 km
500 to 1000 ft
800 to 1500m
200 to 500 ft
< 800m
< 200 ft
Symbols :   Thunderstorms  Fog  Heavy snow  Heavy precipitations  Wind > 20 kt






- Airport Elevation : 95 ft
- IATA code : PTH


PAPH - Port Heiden

CURRENT METAR :
  • 062356Z AUTO 17011G17KT 10SM FEW050 03/M08 A3010 RMK AO2 PRESFR SLP194 T00281078 10033 21006 58028

EXPIRED METARs :
  • 062256Z AUTO 17015KT 10SM CLR 03/M07 A3021 RMK AO2 PRESRR SLP233 T00331072
  • 062156Z AUTO 17015KT 10SM CLR 03/M09 A3014 RMK AO2 PRESFR SLP207 T00281089

TAF N/A



MET'MAP, your aeronautical weather chart ! - Copyright ORBIFLY December 2007 - Disclaimer

ORBIFLY MET'MAP TEAM :

Programming & Development : Alexandra Zaïnal
Concept & original design : Baudouin d'Aumeries
Assistance for programming : Marc-Olivier Méhu
Technical & hardware support : Manuel Goepfert

Contact : metmap@orbifly.com




SOURCES & CREDITS :

   NOAA       Earth
Advisory